Year,Month,Day,Hour,Minute,Value (Times are PST for temperature in C)
2008,05,18,00,00,20.60
2008,05,18,00,01,20.60
2008,05,18,00,02,20.60
2008,05,18,00,03,20.60
2008,05,18,00,04,20.60
2008,05,18,00,05,20.60
2008,05,18,00,06,20.60
2008,05,18,00,07,20.60
2008,05,18,00,08,20.60
2008,05,18,00,09,20.70
2008,05,18,00,10,20.70
2008,05,18,00,11,20.70
2008,05,18,00,12,20.70
2008,05,18,00,13,20.80
2008,05,18,00,14,20.80
2008,05,18,00,15,20.80
2008,05,18,00,16,20.80
2008,05,18,00,17,20.80
2008,05,18,00,18,20.80
2008,05,18,00,19,20.80
2008,05,18,00,20,20.80
2008,05,18,00,21,20.80
2008,05,18,00,22,20.80
2008,05,18,00,23,20.80
2008,05,18,00,24,20.80
2008,05,18,00,25,20.90
2008,05,18,00,26,20.80
2008,05,18,00,27,20.80
2008,05,18,00,28,20.80
2008,05,18,00,29,20.80
2008,05,18,00,30,20.80
2008,05,18,00,31,20.80
2008,05,18,00,32,20.80
2008,05,18,00,33,20.80
2008,05,18,00,34,20.80
2008,05,18,00,35,20.80
2008,05,18,00,36,20.80
2008,05,18,00,37,20.80
2008,05,18,00,38,20.80
2008,05,18,00,39,20.80
2008,05,18,00,40,20.80
2008,05,18,00,41,20.80
2008,05,18,00,42,20.70
2008,05,18,00,43,20.70
2008,05,18,00,44,20.70
2008,05,18,00,45,20.70
2008,05,18,00,46,20.70
2008,05,18,00,47,20.70
2008,05,18,00,48,20.70
2008,05,18,00,49,20.70
2008,05,18,00,50,20.70
2008,05,18,00,51,20.60
2008,05,18,00,52,20.60
2008,05,18,00,53,20.60
2008,05,18,00,54,20.50
2008,05,18,00,55,20.50
2008,05,18,00,56,20.40
2008,05,18,00,57,20.40
2008,05,18,00,58,20.30
2008,05,18,00,59,20.30
2008,05,18,01,00,20.20
2008,05,18,01,01,20.20
2008,05,18,01,02,20.10
2008,05,18,01,03,19.90
2008,05,18,01,04,19.80
2008,05,18,01,05,19.60
2008,05,18,01,06,19.40
2008,05,18,01,07,19.30
2008,05,18,01,08,19.10
2008,05,18,01,09,18.90
2008,05,18,01,10,18.70
2008,05,18,01,11,18.60
2008,05,18,01,12,18.50
2008,05,18,01,13,18.30
2008,05,18,01,14,18.20
2008,05,18,01,15,18.20
2008,05,18,01,16,18.10
2008,05,18,01,17,18.00
2008,05,18,01,18,17.90
2008,05,18,01,19,17.80
2008,05,18,01,20,17.70
2008,05,18,01,21,17.60
2008,05,18,01,22,17.50
2008,05,18,01,23,17.50
2008,05,18,01,24,17.40
2008,05,18,01,25,17.40
2008,05,18,01,26,17.40
2008,05,18,01,27,17.40
2008,05,18,01,28,17.40
2008,05,18,01,29,17.40
2008,05,18,01,30,17.50
2008,05,18,01,31,17.50
2008,05,18,01,32,17.50
2008,05,18,01,33,17.50
2008,05,18,01,34,17.40
2008,05,18,01,35,17.40
2008,05,18,01,36,17.30
2008,05,18,01,37,17.30
2008,05,18,01,38,17.20
2008,05,18,01,39,17.10
2008,05,18,01,40,17.00
2008,05,18,01,41,17.00
2008,05,18,01,42,16.90
2008,05,18,01,43,16.80
2008,05,18,01,44,16.80
2008,05,18,01,45,16.70
2008,05,18,01,46,16.60
2008,05,18,01,47,16.40
2008,05,18,01,48,16.30
2008,05,18,01,49,16.20
2008,05,18,01,50,16.20
2008,05,18,01,51,16.10
2008,05,18,01,52,16.00
2008,05,18,01,53,15.90
2008,05,18,01,54,15.80
2008,05,18,01,55,15.70
2008,05,18,01,56,15.60
2008,05,18,01,57,15.50
2008,05,18,01,58,15.40
2008,05,18,01,59,15.40
2008,05,18,02,00,15.30
2008,05,18,02,01,15.30
2008,05,18,02,02,15.20
2008,05,18,02,03,15.10
2008,05,18,02,04,15.10
2008,05,18,02,05,15.00
2008,05,18,02,06,14.90
2008,05,18,02,07,14.90
2008,05,18,02,08,14.80
2008,05,18,02,09,14.80
2008,05,18,02,10,14.70
2008,05,18,02,11,14.70
2008,05,18,02,12,14.60
2008,05,18,02,13,14.60
2008,05,18,02,14,14.60
2008,05,18,02,15,14.60
2008,05,18,02,16,14.60
2008,05,18,02,17,14.60
2008,05,18,02,18,14.60
2008,05,18,02,19,14.50
2008,05,18,02,20,14.50
2008,05,18,02,21,14.50
2008,05,18,02,22,14.50
2008,05,18,02,23,14.50
2008,05,18,02,24,14.40
2008,05,18,02,25,14.40
2008,05,18,02,26,14.40
2008,05,18,02,27,14.30
2008,05,18,02,28,14.30
2008,05,18,02,29,14.30
2008,05,18,02,30,14.30
2008,05,18,02,31,14.30
2008,05,18,02,32,14.20
2008,05,18,02,33,14.20
2008,05,18,02,34,14.20
2008,05,18,02,35,14.20
2008,05,18,02,36,14.20
2008,05,18,02,37,14.10
2008,05,18,02,38,14.00
2008,05,18,02,39,14.00
2008,05,18,02,40,13.90
2008,05,18,02,41,13.90
2008,05,18,02,42,13.90
2008,05,18,02,43,13.80
2008,05,18,02,44,13.80
2008,05,18,02,45,13.70
2008,05,18,02,46,13.70
2008,05,18,02,47,13.70
2008,05,18,02,48,13.70
2008,05,18,02,49,13.70
2008,05,18,02,50,13.70
2008,05,18,02,51,13.60
2008,05,18,02,52,13.60
2008,05,18,02,53,13.60
2008,05,18,02,54,13.50
2008,05,18,02,55,13.50
2008,05,18,02,56,13.50
2008,05,18,02,57,13.40
2008,05,18,02,58,13.40
2008,05,18,02,59,13.30
2008,05,18,03,00,13.30
2008,05,18,03,01,13.30
2008,05,18,03,02,13.30
2008,05,18,03,03,13.30
2008,05,18,03,04,13.30
2008,05,18,03,05,13.30
2008,05,18,03,06,13.30
2008,05,18,03,07,13.30
2008,05,18,03,08,13.20
2008,05,18,03,09,13.20
2008,05,18,03,10,13.20
2008,05,18,03,11,13.20
2008,05,18,03,12,13.20
2008,05,18,03,13,13.20
2008,05,18,03,14,13.20
2008,05,18,03,15,13.20
2008,05,18,03,16,13.20
2008,05,18,03,17,13.20
2008,05,18,03,18,13.20
2008,05,18,03,19,13.20
2008,05,18,03,20,13.20
2008,05,18,03,21,13.20
2008,05,18,03,22,13.20
2008,05,18,03,23,13.20
2008,05,18,03,24,13.20
2008,05,18,03,25,13.30
2008,05,18,03,26,13.30
2008,05,18,03,27,13.40
2008,05,18,03,28,13.60
2008,05,18,03,29,13.70
2008,05,18,03,30,13.70
2008,05,18,03,31,13.80
2008,05,18,03,32,13.90
2008,05,18,03,33,14.10
2008,05,18,03,34,14.20
2008,05,18,03,35,14.30
2008,05,18,03,36,14.40
2008,05,18,03,37,14.60
2008,05,18,03,38,14.70
2008,05,18,03,39,14.90
2008,05,18,03,40,15.10
2008,05,18,03,41,15.30
2008,05,18,03,42,15.40
2008,05,18,03,43,15.50
2008,05,18,03,44,15.60
2008,05,18,03,45,15.60
2008,05,18,03,46,15.70
2008,05,18,03,47,15.80
2008,05,18,03,48,16.00
2008,05,18,03,49,16.10
2008,05,18,03,50,16.00
2008,05,18,03,51,15.90
2008,05,18,03,52,15.80
2008,05,18,03,53,15.70
2008,05,18,03,54,15.60
2008,05,18,03,55,15.50
2008,05,18,03,56,15.40
2008,05,18,03,57,15.40
2008,05,18,03,58,15.30
2008,05,18,03,59,15.30
2008,05,18,04,00,15.30
2008,05,18,04,01,15.30
2008,05,18,04,02,15.20
2008,05,18,04,03,15.10
2008,05,18,04,04,15.00
2008,05,18,04,05,15.00
2008,05,18,04,06,14.90
2008,05,18,04,07,14.90
2008,05,18,04,08,14.80
2008,05,18,04,09,14.80
2008,05,18,04,10,14.70
2008,05,18,04,11,14.60
2008,05,18,04,12,14.50
2008,05,18,04,13,14.30
2008,05,18,04,14,14.20
2008,05,18,04,15,14.00
2008,05,18,04,16,13.90
2008,05,18,04,17,13.80
2008,05,18,04,18,13.70
2008,05,18,04,19,13.70
2008,05,18,04,20,13.60
2008,05,18,04,21,13.60
2008,05,18,04,22,13.60
2008,05,18,04,23,13.50
2008,05,18,04,24,13.50
2008,05,18,04,25,13.50
2008,05,18,04,26,13.40
2008,05,18,04,27,13.40
2008,05,18,04,28,13.30
2008,05,18,04,29,13.30
2008,05,18,04,30,13.30
2008,05,18,04,31,13.30
2008,05,18,04,32,13.30
2008,05,18,04,33,13.30
2008,05,18,04,34,13.30
2008,05,18,04,35,13.20
2008,05,18,04,36,13.20
2008,05,18,04,37,13.20
2008,05,18,04,38,13.20
2008,05,18,04,39,13.10
2008,05,18,04,40,13.10
2008,05,18,04,41,13.10
2008,05,18,04,42,13.10
2008,05,18,04,43,13.10
2008,05,18,04,44,13.10
2008,05,18,04,45,13.10
2008,05,18,04,46,13.10
2008,05,18,04,47,13.10
2008,05,18,04,48,13.10
2008,05,18,04,49,13.10
2008,05,18,04,50,13.10
2008,05,18,04,51,13.00
2008,05,18,04,52,13.10
2008,05,18,04,53,13.10
2008,05,18,04,54,13.10
2008,05,18,04,55,13.10
2008,05,18,04,56,13.10
2008,05,18,04,57,13.10
2008,05,18,04,58,13.10
2008,05,18,04,59,13.10
2008,05,18,05,00,13.10
2008,05,18,05,01,13.10
2008,05,18,05,02,13.10
2008,05,18,05,03,13.10
2008,05,18,05,04,13.10
2008,05,18,05,05,13.10
2008,05,18,05,06,13.10
2008,05,18,05,07,13.10
2008,05,18,05,08,13.10
2008,05,18,05,09,13.10
2008,05,18,05,10,13.10
2008,05,18,05,11,13.10
2008,05,18,05,12,13.20
2008,05,18,05,13,13.20
2008,05,18,05,14,13.20
2008,05,18,05,15,13.20
2008,05,18,05,16,13.20
2008,05,18,05,17,13.20
2008,05,18,05,18,13.30
2008,05,18,05,19,13.30
2008,05,18,05,20,13.30
2008,05,18,05,21,13.30
2008,05,18,05,22,13.30
2008,05,18,05,23,13.30
2008,05,18,05,24,13.30
2008,05,18,05,25,13.40
2008,05,18,05,26,13.40
2008,05,18,05,27,13.40
2008,05,18,05,28,13.50
2008,05,18,05,29,13.50
2008,05,18,05,30,13.50
2008,05,18,05,31,13.50
2008,05,18,05,32,13.50
2008,05,18,05,33,13.40
2008,05,18,05,34,13.40
2008,05,18,05,35,13.40
2008,05,18,05,36,13.40
2008,05,18,05,37,13.30
2008,05,18,05,38,13.30
2008,05,18,05,39,13.30
2008,05,18,05,40,13.30
2008,05,18,05,41,13.30
2008,05,18,05,42,13.30
2008,05,18,05,43,13.30
2008,05,18,05,44,13.30
2008,05,18,05,45,13.30
2008,05,18,05,46,13.30
2008,05,18,05,47,13.30
2008,05,18,05,48,13.30
2008,05,18,05,49,13.30
2008,05,18,05,50,13.30
2008,05,18,05,51,13.30
2008,05,18,05,52,13.30
2008,05,18,05,53,13.20
2008,05,18,05,54,13.20
2008,05,18,05,55,13.20
2008,05,18,05,56,13.20
2008,05,18,05,57,13.20
2008,05,18,05,58,13.10
2008,05,18,05,59,13.10
2008,05,18,06,00,13.10
2008,05,18,06,01,13.10
2008,05,18,06,02,13.10
2008,05,18,06,03,13.10
2008,05,18,06,04,13.10
2008,05,18,06,05,13.10
2008,05,18,06,06,13.10
2008,05,18,06,07,13.10
2008,05,18,06,08,13.10
2008,05,18,06,09,13.10
2008,05,18,06,10,13.10
2008,05,18,06,11,13.10
2008,05,18,06,12,13.10
2008,05,18,06,13,13.10
2008,05,18,06,14,13.10
2008,05,18,06,15,13.10
2008,05,18,06,16,13.10
2008,05,18,06,17,13.10
2008,05,18,06,18,13.10
2008,05,18,06,19,13.10
2008,05,18,06,20,13.10
2008,05,18,06,21,13.10
2008,05,18,06,22,13.10
2008,05,18,06,23,13.20
2008,05,18,06,24,13.20
2008,05,18,06,25,13.20
2008,05,18,06,26,13.30
2008,05,18,06,27,13.30
2008,05,18,06,28,13.30
2008,05,18,06,29,13.40
2008,05,18,06,30,13.40
2008,05,18,06,31,13.50
2008,05,18,06,32,13.50
2008,05,18,06,33,13.60
2008,05,18,06,34,13.70
2008,05,18,06,35,13.70
2008,05,18,06,36,13.80
2008,05,18,06,37,13.90
2008,05,18,06,38,14.00
2008,05,18,06,39,14.00
2008,05,18,06,40,14.10
2008,05,18,06,41,14.10
2008,05,18,06,42,14.20
2008,05,18,06,43,14.20
2008,05,18,06,44,14.20
2008,05,18,06,45,14.30
2008,05,18,06,46,14.40
2008,05,18,06,47,14.40
2008,05,18,06,48,14.50
2008,05,18,06,49,14.50
2008,05,18,06,50,14.60
2008,05,18,06,51,14.60
2008,05,18,06,52,14.70
2008,05,18,06,53,14.70
2008,05,18,06,54,14.80
2008,05,18,06,55,14.90
2008,05,18,06,56,15.00
2008,05,18,06,57,15.10
2008,05,18,06,58,15.20
2008,05,18,06,59,15.20
2008,05,18,07,00,15.30
2008,05,18,07,01,15.30
2008,05,18,07,02,15.30
2008,05,18,07,03,15.30
2008,05,18,07,04,15.30
2008,05,18,07,05,15.40
2008,05,18,07,06,15.50
2008,05,18,07,07,15.50
2008,05,18,07,08,15.60
2008,05,18,07,09,15.60
2008,05,18,07,10,15.70
2008,05,18,07,11,15.80
2008,05,18,07,12,15.80
2008,05,18,07,13,15.80
2008,05,18,07,14,15.90
2008,05,18,07,15,16.10
2008,05,18,07,16,16.10
2008,05,18,07,17,16.20
2008,05,18,07,18,16.20
2008,05,18,07,19,16.30
2008,05,18,07,20,16.40
2008,05,18,07,21,16.50
2008,05,18,07,22,16.70
2008,05,18,07,23,16.80
2008,05,18,07,24,16.80
2008,05,18,07,25,16.90
2008,05,18,07,26,16.90
2008,05,18,07,27,16.90
2008,05,18,07,28,17.00
2008,05,18,07,29,17.10
2008,05,18,07,30,17.10
2008,05,18,07,31,17.20
2008,05,18,07,32,17.30
2008,05,18,07,33,17.30
2008,05,18,07,34,17.30
2008,05,18,07,35,17.30
2008,05,18,07,36,17.30
2008,05,18,07,37,17.30
2008,05,18,07,38,17.30
2008,05,18,07,39,17.30
2008,05,18,07,40,17.30
2008,05,18,07,41,17.30
2008,05,18,07,42,17.30
2008,05,18,07,43,17.20
2008,05,18,07,44,17.10
2008,05,18,07,45,17.00
2008,05,18,07,46,17.00
2008,05,18,07,47,17.00
2008,05,18,07,48,17.00
2008,05,18,07,49,17.00
2008,05,18,07,50,17.00
2008,05,18,07,51,17.00
2008,05,18,07,52,17.10
2008,05,18,07,53,17.10
2008,05,18,07,54,17.20
2008,05,18,07,55,17.30
2008,05,18,07,56,17.30
2008,05,18,07,57,17.40
2008,05,18,07,58,17.40
2008,05,18,07,59,17.50
2008,05,18,08,00,17.50
2008,05,18,08,01,17.60
2008,05,18,08,02,17.60
2008,05,18,08,03,17.60
2008,05,18,08,04,17.60
2008,05,18,08,05,17.60
2008,05,18,08,06,17.70
2008,05,18,08,07,17.70
2008,05,18,08,08,17.70
2008,05,18,08,09,17.70
2008,05,18,08,10,17.70
2008,05,18,08,11,17.70
2008,05,18,08,12,17.80
2008,05,18,08,13,17.80
2008,05,18,08,14,17.90
2008,05,18,08,15,18.00
2008,05,18,08,16,18.10
2008,05,18,08,17,18.10
2008,05,18,08,18,18.10
2008,05,18,08,19,18.10
2008,05,18,08,20,18.20
2008,05,18,08,21,18.20
2008,05,18,08,22,18.20
2008,05,18,08,23,18.20
2008,05,18,08,24,18.20
2008,05,18,08,25,18.20
2008,05,18,08,26,18.20
2008,05,18,08,27,18.20
2008,05,18,08,28,18.30
2008,05,18,08,29,18.30
2008,05,18,08,30,18.40
2008,05,18,08,31,18.50
2008,05,18,08,32,18.60
2008,05,18,08,33,18.70
2008,05,18,08,34,18.70
2008,05,18,08,35,18.80
2008,05,18,08,36,18.90
2008,05,18,08,37,18.90
2008,05,18,08,38,19.00
2008,05,18,08,39,19.10
2008,05,18,08,40,19.10
2008,05,18,08,41,19.10
2008,05,18,08,42,19.10
2008,05,18,08,43,19.20
2008,05,18,08,44,19.30
2008,05,18,08,45,19.40
2008,05,18,08,46,19.40
2008,05,18,08,47,19.50
2008,05,18,08,48,19.50
2008,05,18,08,49,19.50
2008,05,18,08,50,19.60
2008,05,18,08,51,19.60
2008,05,18,08,52,19.60
2008,05,18,08,53,19.60
2008,05,18,08,54,19.50
2008,05,18,08,55,19.50
2008,05,18,08,56,19.40
2008,05,18,08,57,19.40
2008,05,18,08,58,19.30
2008,05,18,08,59,19.20
2008,05,18,09,00,19.20
2008,05,18,09,01,19.10
2008,05,18,09,02,19.10
2008,05,18,09,03,19.20
2008,05,18,09,04,19.10
2008,05,18,09,05,19.10
2008,05,18,09,06,19.00
2008,05,18,09,07,18.90
2008,05,18,09,08,18.80
2008,05,18,09,09,18.70
2008,05,18,09,10,18.60
2008,05,18,09,11,18.50
2008,05,18,09,12,18.50
2008,05,18,09,13,18.60
2008,05,18,09,14,18.60
2008,05,18,09,15,18.60
2008,05,18,09,16,18.70
2008,05,18,09,17,18.70
2008,05,18,09,18,18.70
2008,05,18,09,19,18.60
2008,05,18,09,20,18.60
2008,05,18,09,21,18.60
2008,05,18,09,22,18.60
2008,05,18,09,23,18.60
2008,05,18,09,24,18.60
2008,05,18,09,25,18.60
2008,05,18,09,26,18.70
2008,05,18,09,27,18.70
2008,05,18,09,28,18.60
2008,05,18,09,29,18.50
2008,05,18,09,30,18.30
2008,05,18,09,31,18.30
2008,05,18,09,32,18.30
2008,05,18,09,33,18.30
2008,05,18,09,34,18.40
2008,05,18,09,35,18.40
2008,05,18,09,36,18.40
2008,05,18,09,37,18.40
2008,05,18,09,38,18.40
2008,05,18,09,39,18.50
2008,05,18,09,40,18.50
2008,05,18,09,41,18.60
2008,05,18,09,42,18.60
2008,05,18,09,43,18.60
2008,05,18,09,44,18.70
2008,05,18,09,45,18.70
2008,05,18,09,46,18.70
2008,05,18,09,47,18.70
2008,05,18,09,48,18.80
2008,05,18,09,49,18.80
2008,05,18,09,50,18.80
2008,05,18,09,51,18.80
2008,05,18,09,52,18.90
2008,05,18,09,53,18.90
2008,05,18,09,54,18.90
2008,05,18,09,55,18.90
2008,05,18,09,56,19.00
2008,05,18,09,57,19.10
2008,05,18,09,58,19.10
2008,05,18,09,59,19.10
2008,05,18,10,00,19.10
2008,05,18,10,01,18.90
2008,05,18,10,02,19.10
2008,05,18,10,03,19.10
2008,05,18,10,04,19.00
2008,05,18,10,05,18.90
2008,05,18,10,06,18.90
2008,05,18,10,07,19.10
2008,05,18,10,08,19.10
2008,05,18,10,09,19.20
2008,05,18,10,10,19.20
2008,05,18,10,11,19.20
2008,05,18,10,12,19.30
2008,05,18,10,13,19.40
2008,05,18,10,14,19.30
2008,05,18,10,15,19.30
2008,05,18,10,16,19.10
2008,05,18,10,17,19.10
2008,05,18,10,18,19.10
2008,05,18,10,19,19.10
2008,05,18,10,20,19.10
2008,05,18,10,21,19.10
2008,05,18,10,22,19.10
2008,05,18,10,23,19.10
2008,05,18,10,24,19.10
2008,05,18,10,25,19.10
2008,05,18,10,26,19.10
2008,05,18,10,27,19.20
2008,05,18,10,28,19.20
2008,05,18,10,29,19.30
2008,05,18,10,30,19.40
2008,05,18,10,31,19.50
2008,05,18,10,32,19.50
2008,05,18,10,33,19.40
2008,05,18,10,34,19.40
2008,05,18,10,35,19.40
2008,05,18,10,36,19.50
2008,05,18,10,37,19.60
2008,05,18,10,38,19.60
2008,05,18,10,39,19.40
2008,05,18,10,40,19.40
2008,05,18,10,41,19.40
2008,05,18,10,42,19.50
2008,05,18,10,43,19.50
2008,05,18,10,44,19.60
2008,05,18,10,45,19.70
2008,05,18,10,46,19.70
2008,05,18,10,47,19.80
2008,05,18,10,48,19.70
2008,05,18,10,49,19.50
2008,05,18,10,50,19.30
2008,05,18,10,51,19.10
2008,05,18,10,52,19.10
2008,05,18,10,53,18.90
2008,05,18,10,54,18.80
2008,05,18,10,55,18.70
2008,05,18,10,56,18.50
2008,05,18,10,57,18.40
2008,05,18,10,58,18.30
2008,05,18,10,59,18.30
2008,05,18,11,00,18.30
2008,05,18,11,01,18.30
2008,05,18,11,02,18.20
2008,05,18,11,03,18.20
2008,05,18,11,04,18.20
2008,05,18,11,05,18.10
2008,05,18,11,06,18.00
2008,05,18,11,07,18.00
2008,05,18,11,08,18.10
2008,05,18,11,09,18.00
2008,05,18,11,10,17.90
2008,05,18,11,11,17.80
2008,05,18,11,12,17.70
2008,05,18,11,13,17.70
2008,05,18,11,14,17.70
2008,05,18,11,15,17.70
2008,05,18,11,16,17.80
2008,05,18,11,17,17.80
2008,05,18,11,18,17.70
2008,05,18,11,19,17.70
2008,05,18,11,20,17.70
2008,05,18,11,21,17.70
2008,05,18,11,22,17.70
2008,05,18,11,23,17.70
2008,05,18,11,24,17.80
2008,05,18,11,25,17.80
2008,05,18,11,26,17.80
2008,05,18,11,27,17.90
2008,05,18,11,28,17.90
2008,05,18,11,29,17.90
2008,05,18,11,30,18.00
2008,05,18,11,31,18.10
2008,05,18,11,32,18.20
2008,05,18,11,33,18.30
2008,05,18,11,34,18.40
2008,05,18,11,35,18.40
2008,05,18,11,36,18.50
2008,05,18,11,37,18.50
2008,05,18,11,38,18.60
2008,05,18,11,39,18.60
2008,05,18,11,40,18.70
2008,05,18,11,41,18.70
2008,05,18,11,42,18.70
2008,05,18,11,43,18.80
2008,05,18,11,44,18.80
2008,05,18,11,45,18.70
2008,05,18,11,46,18.70
2008,05,18,11,47,18.70
2008,05,18,11,48,18.60
2008,05,18,11,49,18.60
2008,05,18,11,50,18.60
2008,05,18,11,51,18.60
2008,05,18,11,52,18.60
2008,05,18,11,53,18.60
2008,05,18,11,54,18.60
2008,05,18,11,55,18.60
2008,05,18,11,56,18.50
2008,05,18,11,57,18.50
2008,05,18,11,58,18.40
2008,05,18,11,59,18.40
2008,05,18,12,00,18.30
2008,05,18,12,01,18.40
2008,05,18,12,02,18.40
2008,05,18,12,03,18.50
2008,05,18,12,04,18.50
2008,05,18,12,05,18.50
2008,05,18,12,06,18.50
2008,05,18,12,07,18.50
2008,05,18,12,08,18.40
2008,05,18,12,09,18.40
2008,05,18,12,10,18.40
2008,05,18,12,11,18.30
2008,05,18,12,12,18.40
2008,05,18,12,13,18.40
2008,05,18,12,14,18.30
2008,05,18,12,15,18.20
2008,05,18,12,16,18.10
2008,05,18,12,17,18.00
2008,05,18,12,18,17.80
2008,05,18,12,19,17.70
2008,05,18,12,20,17.50
2008,05,18,12,21,17.50
2008,05,18,12,22,17.60
2008,05,18,12,23,17.50
2008,05,18,12,24,17.30
2008,05,18,12,25,17.10
2008,05,18,12,26,17.00
2008,05,18,12,27,16.90
2008,05,18,12,28,16.90
2008,05,18,12,29,16.80
2008,05,18,12,30,16.80
2008,05,18,12,31,16.80
2008,05,18,12,32,17.00
2008,05,18,12,33,17.10
2008,05,18,12,34,17.10
2008,05,18,12,35,17.20
2008,05,18,12,36,17.30
2008,05,18,12,37,17.30
2008,05,18,12,38,17.40
2008,05,18,12,39,17.50
2008,05,18,12,40,17.60
2008,05,18,12,41,17.60
2008,05,18,12,42,17.60
2008,05,18,12,43,17.60
2008,05,18,12,44,17.50
2008,05,18,12,45,17.60
2008,05,18,12,46,17.60
2008,05,18,12,47,17.50
2008,05,18,12,48,17.50
2008,05,18,12,49,17.50
2008,05,18,12,50,17.50
2008,05,18,12,51,17.60
2008,05,18,12,52,17.70
2008,05,18,12,53,17.70
2008,05,18,12,54,17.80
2008,05,18,12,55,17.70
2008,05,18,12,56,17.60
2008,05,18,12,57,17.60
2008,05,18,12,58,17.70
2008,05,18,12,59,17.80
2008,05,18,13,00,17.80
2008,05,18,13,01,17.80
2008,05,18,13,02,17.90
2008,05,18,13,03,17.80
2008,05,18,13,04,17.70
2008,05,18,13,05,17.70
2008,05,18,13,06,17.60
2008,05,18,13,07,17.60
2008,05,18,13,08,17.50
2008,05,18,13,09,17.60
2008,05,18,13,10,17.60
2008,05,18,13,11,17.70
2008,05,18,13,12,17.80
2008,05,18,13,13,17.90
2008,05,18,13,14,18.00
2008,05,18,13,15,18.10
2008,05,18,13,16,18.10
2008,05,18,13,17,18.10
2008,05,18,13,18,17.90
2008,05,18,13,19,17.90
2008,05,18,13,20,17.80
2008,05,18,13,21,17.70
2008,05,18,13,22,17.60
2008,05,18,13,23,17.40
2008,05,18,13,24,17.30
2008,05,18,13,25,17.30
2008,05,18,13,26,17.30
2008,05,18,13,27,17.30
2008,05,18,13,28,17.30
2008,05,18,13,29,17.30
2008,05,18,13,30,17.20
2008,05,18,13,31,17.20
2008,05,18,13,32,17.20
2008,05,18,13,33,17.10
2008,05,18,13,34,17.00
2008,05,18,13,35,17.00
2008,05,18,13,36,17.00
2008,05,18,13,37,16.90
2008,05,18,13,38,16.90
2008,05,18,13,39,16.90
2008,05,18,13,40,16.90
2008,05,18,13,41,17.00
2008,05,18,13,42,17.00
2008,05,18,13,43,17.00
2008,05,18,13,44,17.00
2008,05,18,13,45,16.90
2008,05,18,13,46,16.90
2008,05,18,13,47,16.80
2008,05,18,13,48,16.70
2008,05,18,13,49,16.70
2008,05,18,13,50,16.70
2008,05,18,13,51,16.50
2008,05,18,13,52,16.40
2008,05,18,13,53,16.30
2008,05,18,13,54,16.30
2008,05,18,13,55,16.30
2008,05,18,13,56,16.30
2008,05,18,13,57,16.30
2008,05,18,13,58,16.20
2008,05,18,13,59,16.20
2008,05,18,14,00,16.20
2008,05,18,14,01,16.20
2008,05,18,14,02,16.30
2008,05,18,14,03,16.50
2008,05,18,14,04,16.60
2008,05,18,14,05,16.70
2008,05,18,14,06,16.70
2008,05,18,14,07,16.70
2008,05,18,14,08,16.80
2008,05,18,14,09,16.90
2008,05,18,14,10,17.10
2008,05,18,14,11,17.20
2008,05,18,14,12,17.30
2008,05,18,14,13,17.30
2008,05,18,14,14,17.30
2008,05,18,14,15,17.30
2008,05,18,14,16,17.40
2008,05,18,14,17,17.40
2008,05,18,14,18,17.40
2008,05,18,14,19,17.50
2008,05,18,14,20,17.50
2008,05,18,14,21,17.60
2008,05,18,14,22,17.70
2008,05,18,14,23,17.80
2008,05,18,14,24,17.80
2008,05,18,14,25,17.80
2008,05,18,14,26,17.80
2008,05,18,14,27,17.70
2008,05,18,14,28,17.70
2008,05,18,14,29,17.60
2008,05,18,14,30,17.70
2008,05,18,14,31,17.60
2008,05,18,14,32,17.70
2008,05,18,14,33,17.70
2008,05,18,14,34,17.70
2008,05,18,14,35,17.70
2008,05,18,14,36,17.90
2008,05,18,14,37,17.90
2008,05,18,14,38,17.90
2008,05,18,14,39,17.90
2008,05,18,14,40,17.90
2008,05,18,14,41,18.00
2008,05,18,14,42,18.10
2008,05,18,14,43,18.20
2008,05,18,14,44,18.20
2008,05,18,14,45,18.20
2008,05,18,14,46,18.20
2008,05,18,14,47,18.20
2008,05,18,14,48,18.20
2008,05,18,14,49,18.20
2008,05,18,14,50,18.20
2008,05,18,14,51,18.20
2008,05,18,14,52,18.20
2008,05,18,14,53,18.20
2008,05,18,14,54,18.40
2008,05,18,14,55,18.50
2008,05,18,14,56,18.50
2008,05,18,14,57,18.60
2008,05,18,14,58,18.60
2008,05,18,14,59,18.70
2008,05,18,15,00,18.70
2008,05,18,15,01,18.80
2008,05,18,15,02,18.80
2008,05,18,15,03,18.90
2008,05,18,15,04,18.90
2008,05,18,15,05,18.90
2008,05,18,15,06,18.90
2008,05,18,15,07,18.90
2008,05,18,15,08,19.10
2008,05,18,15,09,19.10
2008,05,18,15,10,19.10
2008,05,18,15,11,19.10
2008,05,18,15,12,19.10
2008,05,18,15,13,19.20
2008,05,18,15,14,19.20
2008,05,18,15,15,19.20
2008,05,18,15,16,19.30
2008,05,18,15,17,19.30
2008,05,18,15,18,19.20
2008,05,18,15,19,19.30
2008,05,18,15,20,19.30
2008,05,18,15,21,19.40
2008,05,18,15,22,19.50
2008,05,18,15,23,19.60
2008,05,18,15,24,19.60
2008,05,18,15,25,19.70
2008,05,18,15,26,19.70
2008,05,18,15,27,19.80
2008,05,18,15,28,19.90
2008,05,18,15,29,20.10
2008,05,18,15,30,20.20
2008,05,18,15,31,20.40
2008,05,18,15,32,20.40
2008,05,18,15,33,20.40
2008,05,18,15,34,20.50
2008,05,18,15,35,20.50
2008,05,18,15,36,20.60
2008,05,18,15,37,20.70
2008,05,18,15,38,20.70
2008,05,18,15,39,20.70
2008,05,18,15,40,20.60
2008,05,18,15,41,20.50
2008,05,18,15,42,20.50
2008,05,18,15,43,20.50
2008,05,18,15,44,20.60
2008,05,18,15,45,20.60
2008,05,18,15,46,20.70
2008,05,18,15,47,20.80
2008,05,18,15,48,21.00
2008,05,18,15,49,21.10
2008,05,18,15,50,21.20
2008,05,18,15,51,21.30
2008,05,18,15,52,21.30
2008,05,18,15,53,21.40
2008,05,18,15,54,21.50
2008,05,18,15,55,21.70
2008,05,18,15,56,21.80
2008,05,18,15,57,22.00
2008,05,18,15,58,22.00
2008,05,18,15,59,22.10
2008,05,18,16,00,22.20
2008,05,18,16,01,22.30
2008,05,18,16,02,22.40
2008,05,18,16,03,22.40
2008,05,18,16,04,22.40
2008,05,18,16,05,22.40
2008,05,18,16,06,22.40
2008,05,18,16,07,22.40
2008,05,18,16,08,22.40
2008,05,18,16,09,22.40
2008,05,18,16,10,22.40
2008,05,18,16,11,22.50
2008,05,18,16,12,22.40
2008,05,18,16,13,22.50
2008,05,18,16,14,22.50
2008,05,18,16,15,22.40
2008,05,18,16,16,22.40
2008,05,18,16,17,22.40
2008,05,18,16,18,22.50
2008,05,18,16,19,22.40
2008,05,18,16,20,22.40
2008,05,18,16,21,22.40
2008,05,18,16,22,22.50
2008,05,18,16,23,22.50
2008,05,18,16,24,22.50
2008,05,18,16,25,22.50
2008,05,18,16,26,22.50
2008,05,18,16,27,22.50
2008,05,18,16,28,22.60
2008,05,18,16,29,22.60
2008,05,18,16,30,22.70
2008,05,18,16,31,22.90
2008,05,18,16,32,23.00
2008,05,18,16,33,23.20
2008,05,18,16,34,23.30
2008,05,18,16,35,23.40
2008,05,18,16,36,23.50
2008,05,18,16,37,23.60
2008,05,18,16,38,23.70
2008,05,18,16,39,23.80
2008,05,18,16,40,23.90
2008,05,18,16,41,24.00
2008,05,18,16,42,24.10
2008,05,18,16,43,24.10
2008,05,18,16,44,24.10
2008,05,18,16,45,24.10
2008,05,18,16,46,24.10
2008,05,18,16,47,24.20
2008,05,18,16,48,24.20
2008,05,18,16,49,24.20
2008,05,18,16,50,24.20
2008,05,18,16,51,24.10
2008,05,18,16,52,24.10
2008,05,18,16,53,24.10
2008,05,18,16,54,24.20
2008,05,18,16,55,24.20
2008,05,18,16,56,24.20
2008,05,18,16,57,24.20
2008,05,18,16,58,24.30
2008,05,18,16,59,24.30
2008,05,18,17,00,24.40
2008,05,18,17,01,24.40
2008,05,18,17,02,24.20
2008,05,18,17,03,24.10
2008,05,18,17,04,24.10
2008,05,18,17,05,24.10
2008,05,18,17,06,23.90
2008,05,18,17,07,23.90
2008,05,18,17,08,23.80
2008,05,18,17,09,23.80
2008,05,18,17,10,23.70
2008,05,18,17,11,23.70
2008,05,18,17,12,23.70
2008,05,18,17,13,23.70
2008,05,18,17,14,23.70
2008,05,18,17,15,23.60
2008,05,18,17,16,23.60
2008,05,18,17,17,23.60
2008,05,18,17,18,23.50
2008,05,18,17,19,23.40